Station 41033 - Fripp Nearshore, SC (FRP2) Image indicating link to RSS feed of recent meteorological observations for station 41033


Conditions at 41033 as of
(9:08 am EDT)
1308 GMT on 05/24/2024:
     

Click on the graph icon in the table below to see a time series plot of the last five days of that observation.

5-day plot - Wind Direction Wind Direction (WDIR): SW ( 230 deg true )
5-day plot - Wind Speed Wind Speed (WSPD): 9.7 kts
5-day plot - Wind Gust Wind Gust (GST): 13.6 kts
5-day plot - Atmospheric Pressure Atmospheric Pressure (PRES):29.99 in
5-day plot - Air Temperature Air Temperature (ATMP): 77.0 °F
5-day plot - Water Temperature Water Temperature (WTMP): 76.6 °F
5-day plot - Dew Point Dew Point (DEWP): 72.7 °F
5-day plot - Wind Speed at 10 Meters Wind Speed at 10 meters (WSPD10M): 11.7 kts
5-day plot - Wind Speed at 20 Meters Wind Speed at 20 meters (WSPD20M): 11.7 kts
5-day plot -  Wind Speed, Wind Gust and Atmospheric Pressure Combined plot of Wind Speed, Gust, and Air Pressure
Previous observations
TIME
(EDT)
5-day plot - Wind Direction
WDIR
 
5-day plot - Wind Speed
WSPD
kts
5-day plot - Wind Gust
GST
kts
5-day plot - Wave Height
WVHT
ft
5-day plot - Dominant Wave Period
DPD
sec
5-day plot - Average Wave Period
APD
sec
5-day plot - Mean Wave Direction
MWD
 
5-day plot - Atmospheric Pressure
PRES
in
5-day plot - Pressure Tendency
PTDY
in
5-day plot - Air Temperature
ATMP
°F
5-day plot - Water Temperature
WTMP
°F
5-day plot - Dew Point
DEWP
°F
5-day plot - Salinity
SAL
psu
5-day plot - Visibility
VIS
nmi
5-day plot - Tide (above MLLW)
TIDE
ft
2024-05-24 08:08 am SW 11.7 15.5----29.98- 76.8 76.5 72.5---
2024-05-24 07:08 amWSW 11.7 15.5----29.96- 76.5 76.5 73.4---
2024-05-24 06:08 amWSW 11.7 17.5----29.94- 76.6 76.6 74.3---
2024-05-24 05:08 am SW 11.7 17.5----29.96- 77.0 77.0 74.1---
2024-05-24 04:08 am SW 13.6 13.6----29.98- 77.0 77.2 73.9---
2024-05-24 03:08 amSSW 11.7 15.5----29.98- 76.8 77.7 73.8---
2024-05-24 02:08 amSSW 9.7 15.5----29.97- 76.5 77.4 73.8---
2024-05-24 01:08 amSSW 11.7 15.5----29.98- 76.8 77.9 73.9---
2024-05-24 12:08 amSSW 11.7 11.7----29.99- 77.4 78.4 73.6---
2024-05-23 11:08 pm S 11.7 15.5----29.99- 77.5 78.3 73.0---
2024-05-23 10:08 pmSSW 11.7 15.5----29.98- 77.4 77.9 73.0---
2024-05-23 09:08 pm S 13.6 15.5----29.96- 77.4 77.5 73.2---
2024-05-23 08:08 pm S 13.6 17.5----29.95- 77.4 77.9 73.6---
2024-05-23 07:08 pm S 11.7 15.5----29.95- 77.5 78.4 74.1---
2024-05-23 06:08 pm S 11.7 15.5----29.95- 77.9 79.3 74.3---
2024-05-23 05:08 pm S 9.7 13.6----29.96- 78.3 80.1 74.3---
2024-05-23 04:08 pm S 9.7 13.6----29.97- 78.1 80.2 74.1---
2024-05-23 03:08 pm S 7.8 11.7----29.99- 78.1 80.2 74.1---
2024-05-23 02:08 pm S 9.7 11.7----30.00- 77.7 79.5 73.6---
2024-05-23 01:08 pm S 7.8 7.8----30.00- 77.4 78.6 73.6---
2024-05-23 12:08 pm SW 5.8 7.8----30.02- 76.8 77.2 73.2---
2024-05-23 11:08 am SW 7.8 9.7----30.02- 76.6 76.5 72.9---
2024-05-23 10:08 am SW 9.7 11.7----30.03- 76.5 76.1 72.9---